| time (UTC) | temp F | wind direction | speed MPH | gust MPH | rain 1hr in | rain 24hr in | rain mn in | humidity % | barometer mb |
| 20260506015602 | 73 | 47 | 3.0 | 5.0 | 0.00 | 0.00 | 0.00 | 70 | 1007.9 |
| 20260506015102 | 73 | 19 | 3.0 | 6.0 | 0.00 | 0.00 | 0.00 | 69 | 1008.0 |
| 20260506014602 | 74 | 9 | 6.0 | 6.0 | 0.00 | 0.00 | 0.00 | 68 | 1007.8 |
| 20260506014102 | 74 | 9 | 6.0 | 6.0 | 0.00 | 0.00 | 0.00 | 68 | 1007.5 |
| 20260506013601 | 74 | 157 | 2.0 | 4.0 | 0.00 | 0.00 | 0.00 | 68 | 1007.8 |
| 20260506012531 | 75 | 157 | 2.0 | 4.0 | 0.00 | 0.00 | 0.00 | 67 | 1007.7 |
| 20260506012030 | 75 | 157 | 2.0 | 4.0 | 0.00 | 0.00 | 0.00 | 67 | 1007.7 |
| 20260506011530 | 75 | 157 | 2.0 | 4.0 | 0.00 | 0.00 | 0.00 | 67 | 1007.7 |
| 20260506010530 | 75 | 157 | 2.0 | 4.0 | 0.00 | 0.00 | 0.00 | 67 | 1007.5 |
| 20260506010030 | 75 | 274 | 2.0 | 6.0 | 0.00 | 0.00 | 0.00 | 67 | 1007.2 |
| 20260506005500 | 75 | 274 | 2.0 | 9.0 | 0.00 | 0.00 | 0.00 | 66 | 1006.9 |
| 20260506005000 | 75 | 307 | 2.0 | 9.0 | 0.00 | 0.00 | 0.00 | 67 | 1007.1 |
| 20260506004459 | 76 | 12 | 4.0 | 6.0 | 0.00 | 0.00 | 0.00 | 67 | 1007.0 |
| 20260506004000 | 76 | 342 | 6.0 | 6.0 | 0.00 | 0.00 | 0.00 | 67 | 1006.8 |
| 20260506003459 | 79 | 3 | 5.0 | 5.0 | 0.00 | 0.00 | 0.00 | 63 | 1006.7 |
| 20260506002429 | 79 | 3 | 5.0 | 5.0 | 0.00 | 0.00 | 0.00 | 63 | 1006.9 |
| 20260506001428 | 79 | 3 | 5.0 | 8.0 | 0.00 | 0.00 | 0.00 | 63 | 1006.9 |
| 20260506000928 | 79 | 271 | 5.0 | 8.0 | 0.00 | 0.00 | 0.00 | 62 | 1006.7 |
| 20260505235928 | 80 | 14 | 9.0 | 9.0 | 0.00 | 0.00 | 0.00 | 62 | 1006.1 |
| 20260505235358 | 81 | 14 | 9.0 | 9.0 | 0.00 | 0.00 | 0.00 | 61 | 1006.0 |
| 20260505234858 | 81 | 334 | 5.0 | 6.0 | 0.00 | 0.00 | 0.00 | 61 | 1006.2 |
| 20260505234358 | 82 | 334 | 5.0 | 6.0 | 0.00 | 0.00 | 0.00 | 60 | 1006.0 |
| 20260505233857 | 82 | 268 | 2.0 | 6.0 | 0.00 | 0.00 | 0.00 | 60 | 1006.2 |
| 20260505233358 | 84 | 288 | 5.0 | 5.0 | 0.00 | 0.00 | 0.00 | 54 | 1005.9 |
| 20260505232857 | 84 | 9 | 3.0 | 4.0 | 0.00 | 0.00 | 0.00 | 54 | 1006.0 |
| 20260505232327 | 86 | 9 | 3.0 | 4.0 | 0.00 | 0.00 | 0.00 | 51 | 1006.0 |
| 20260505231827 | 86 | 9 | 3.0 | 4.0 | 0.00 | 0.00 | 0.00 | 51 | 1005.8 |
| 20260505231327 | 86 | 9 | 3.0 | 6.0 | 0.00 | 0.00 | 0.00 | 51 | 1005.8 |
| 20260505225826 | 90 | 230 | 0.0 | 2.0 | 0.00 | 0.00 | 0.00 | 53 | 1005.1 |
| 20260505225326 | 90 | 324 | 0.0 | 3.0 | 0.00 | 0.00 | 0.00 | 52 | 1005.2 |
| 20260505224756 | 90 | 130 | 0.0 | 3.0 | 0.00 | 0.00 | 0.00 | 53 | 1005.3 |
| 20260505224256 | 90 | 112 | 0.0 | 3.0 | 0.00 | 0.00 | 0.00 | 53 | 1005.2 |
| 20260505223756 | 90 | 52 | 0.0 | 3.0 | 0.00 | 0.00 | 0.00 | 53 | 1005.2 |
| 20260505223256 | 91 | 239 | 1.0 | 2.0 | 0.00 | 0.00 | 0.00 | 51 | 1005.1 |
| 20260505222755 | 91 | 306 | 0.0 | 2.0 | 0.00 | 0.00 | 0.00 | 55 | 1005.0 |
| 20260505222255 | 91 | 306 | 0.0 | 2.0 | 0.00 | 0.00 | 0.00 | 55 | 1005.0 |
| 20260505221225 | 91 | 306 | 0.0 | 2.0 | 0.00 | 0.00 | 0.00 | 55 | 1004.9 |
| 20260505220725 | 91 | 306 | 0.0 | 2.0 | 0.00 | 0.00 | 0.00 | 55 | 1005.0 |
| 20260505220225 | 91 | 306 | 0.0 | 2.0 | 0.00 | 0.00 | 0.00 | 55 | 1005.1 |
| 20260505215724 | 91 | 306 | 0.0 | 2.0 | 0.00 | 0.00 | 0.00 | 55 | 1005.1 |
| 20260505215224 | 91 | 306 | 0.0 | 2.0 | 0.00 | 0.00 | 0.00 | 55 | 1005.2 |
| 20260505214154 | 91 | 306 | 0.0 | 2.0 | 0.00 | 0.00 | 0.00 | 55 | 1005.1 |
| 20260505213653 | 93 | 330 | 0.0 | 2.0 | 0.00 | 0.00 | 0.00 | 53 | 1005.2 |
| 20260505213153 | 93 | 330 | 0.0 | 2.0 | 0.00 | 0.00 | 0.00 | 53 | 1005.3 |
| 20260505212653 | 93 | 330 | 0.0 | 2.0 | 0.00 | 0.00 | 0.00 | 53 | 1005.4 |
| 20260505212153 | 93 | 330 | 0.0 | 2.0 | 0.00 | 0.00 | 0.00 | 53 | 1005.4 |
| 20260505211624 | 92 | 179 | 2.0 | 2.0 | 0.00 | 0.00 | 0.00 | 56 | 1005.4 |
| 20260505211124 | 92 | 179 | 2.0 | 6.0 | 0.00 | 0.00 | 0.00 | 56 | 1005.6 |
| 20260505210622 | 92 | 179 | 2.0 | 6.0 | 0.00 | 0.00 | 0.00 | 56 | 1005.4 |
| 20260505210122 | 93 | 87 | 1.0 | 5.0 | 0.00 | 0.00 | 0.00 | 52 | 1005.5 |
| 20260505205622 | 91 | 308 | 0.0 | 4.0 | 0.00 | 0.00 | 0.00 | 55 | 1005.6 |
| 20260505205122 | 91 | 74 | 1.0 | 4.0 | 0.00 | 0.00 | 0.00 | 56 | 1005.8 |
| 20260505204553 | 91 | 111 | 2.0 | 9.0 | 0.00 | 0.00 | 0.00 | 54 | 1005.6 |
| 20260505204052 | 91 | 9 | 3.0 | 9.0 | 0.00 | 0.00 | 0.00 | 55 | 1005.7 |
| 20260505203552 | 91 | 23 | 2.0 | 8.0 | 0.00 | 0.00 | 0.00 | 54 | 1006.0 |
| 20260505202551 | 91 | 346 | 3.0 | 5.0 | 0.00 | 0.00 | 0.00 | 56 | 1005.9 |
| 20260505202052 | 91 | 298 | 2.0 | 11.0 | 0.00 | 0.00 | 0.00 | 55 | 1006.1 |
| 20260505201551 | 91 | 263 | 2.0 | 11.0 | 0.00 | 0.00 | 0.00 | 55 | 1006.0 |
| 20260505201021 | 91 | 139 | 2.0 | 6.0 | 0.00 | 0.00 | 0.00 | 54 | 1006.1 |
| 20260505200521 | 90 | 344 | 2.0 | 11.0 | 0.00 | 0.00 | 0.00 | 57 | 1005.9 |
| 20260505200021 | 90 | 354 | 4.0 | 11.0 | 0.00 | 0.00 | 0.00 | 55 | 1006.1 |
| 20260505195020 | 90 | 157 | 2.0 | 6.0 | 0.00 | 0.00 | 0.00 | 55 | 1006.2 |
| 20260505194520 | 90 | 40 | 5.0 | 6.0 | 0.00 | 0.00 | 0.00 | 55 | 1006.3 |
| 20260505193949 | 90 | 122 | 2.0 | 5.0 | 0.00 | 0.00 | 0.00 | 57 | 1006.2 |
| 20260505193450 | 89 | 296 | 2.0 | 5.0 | 0.00 | 0.00 | 0.00 | 57 | 1006.1 |
| 20260505192950 | 90 | 285 | 2.0 | 5.0 | 0.00 | 0.00 | 0.00 | 58 | 1006.2 |
| 20260505192450 | 89 | 357 | 4.0 | 6.0 | 0.00 | 0.00 | 0.00 | 57 | 1006.2 |
| 20260505191949 | 89 | 10 | 4.0 | 6.0 | 0.00 | 0.00 | 0.00 | 58 | 1006.3 |
| 20260505190920 | 87 | 261 | 1.0 | 7.0 | 0.00 | 0.00 | 0.00 | 62 | 1006.2 |
| 20260505185919 | 88 | 51 | 2.0 | 3.0 | 0.00 | 0.00 | 0.00 | 62 | 1006.2 |
| 20260505185419 | 87 | 151 | 1.0 | 5.0 | 0.00 | 0.00 | 0.00 | 60 | 1006.4 |
| 20260505184918 | 86 | 318 | 2.0 | 5.0 | 0.00 | 0.00 | 0.00 | 62 | 1006.4 |
| 20260505184418 | 86 | 312 | 2.0 | 11.0 | 0.00 | 0.00 | 0.00 | 62 | 1006.6 |
| 20260505183348 | 85 | 340 | 2.0 | 4.0 | 0.00 | 0.00 | 0.00 | 63 | 1006.5 |
| 20260505182348 | 85 | 19 | 1.0 | 10.0 | 0.00 | 0.00 | 0.00 | 64 | 1006.5 |
| 20260505181848 | 85 | 284 | 1.0 | 6.0 | 0.00 | 0.00 | 0.00 | 63 | 1006.5 |
| 20260505180817 | 85 | 254 | 2.0 | 6.0 | 0.00 | 0.00 | 0.00 | 64 | 1006.5 |
| 20260505180316 | 85 | 325 | 1.0 | 9.0 | 0.00 | 0.00 | 0.00 | 64 | 1006.5 |
| 20260505175817 | 84 | 28 | 2.0 | 9.0 | 0.00 | 0.00 | 0.00 | 63 | 1006.4 |
| 20260505175316 | 86 | 39 | 0.0 | 8.0 | 0.00 | 0.00 | 0.00 | 62 | 1006.3 |
| 20260505174317 | 85 | 85 | 2.0 | 6.0 | 0.00 | 0.00 | 0.00 | 64 | 1006.6 |
| 20260505173816 | 85 | 149 | 0.0 | 6.0 | 0.00 | 0.00 | 0.00 | 64 | 1006.6 |
| 20260505173246 | 85 | 70 | 3.0 | 5.0 | 0.00 | 0.00 | 0.00 | 64 | 1006.6 |
| 20260505172746 | 84 | 354 | 0.0 | 5.0 | 0.00 | 0.00 | 0.00 | 65 | 1006.6 |
| 20260505172245 | 85 | 243 | 1.0 | 4.0 | 0.00 | 0.00 | 0.00 | 64 | 1006.7 |
| 20260505171746 | 84 | 10 | 2.0 | 4.0 | 0.00 | 0.00 | 0.00 | 65 | 1006.9 |
| 20260505171245 | 83 | 275 | 2.0 | 4.0 | 0.00 | 0.00 | 0.00 | 66 | 1006.5 |
| 20260505170746 | 83 | 162 | 1.0 | 11.0 | 0.00 | 0.00 | 0.00 | 68 | 1006.7 |
| 20260505170215 | 82 | 327 | 2.0 | 11.0 | 0.00 | 0.00 | 0.00 | 68 | 1006.6 |
| 20260505165715 | 83 | 211 | 1.0 | 5.0 | 0.00 | 0.00 | 0.00 | 65 | 1006.9 |
| 20260505165215 | 83 | 62 | 2.0 | 6.0 | 0.00 | 0.00 | 0.00 | 66 | 1006.5 |
| 20260505164715 | 82 | 134 | 3.0 | 6.0 | 0.00 | 0.00 | 0.00 | 67 | 1006.6 |
| 20260505164214 | 82 | 327 | 3.0 | 5.0 | 0.00 | 0.00 | 0.00 | 67 | 1006.5 |
| 20260505163715 | 81 | 186 | 1.0 | 6.0 | 0.00 | 0.00 | 0.00 | 68 | 1006.6 |
| 20260505163145 | 81 | 29 | 5.0 | 9.0 | 0.00 | 0.00 | 0.00 | 68 | 1006.5 |
| 20260505162143 | 81 | 336 | 0.0 | 5.0 | 0.00 | 0.00 | 0.00 | 68 | 1006.4 |
| 20260505161644 | 83 | 180 | 2.0 | 5.0 | 0.00 | 0.00 | 0.00 | 66 | 1006.5 |
| 20260505161143 | 82 | 180 | 2.0 | 5.0 | 0.00 | 0.00 | 0.00 | 67 | 1006.6 |
| 20260505160643 | 82 | 194 | 2.0 | 9.0 | 0.00 | 0.00 | 0.00 | 67 | 1006.3 |
| 20260505160114 | 82 | 286 | 2.0 | 9.0 | 0.00 | 0.00 | 0.00 | 67 | 1006.5 |
| 20260505153042 | 81 | 104 | 5.0 | 6.0 | 0.00 | 0.00 | 0.00 | 69 | 1006.4 |
| 20260505152542 | 81 | 127 | 2.0 | 6.0 | 0.00 | 0.00 | 0.00 | 69 | 1006.3 |
| 20260505152042 | 81 | 123 | 2.0 | 4.0 | 0.00 | 0.00 | 0.00 | 70 | 1006.5 |
| 20260505151542 | 80 | 204 | 2.0 | 4.0 | 0.00 | 0.00 | 0.00 | 71 | 1006.6 |
| 20260505151042 | 80 | 343 | 2.0 | 4.0 | 0.00 | 0.00 | 0.00 | 71 | 1006.5 |
| 20260505140440 | 75 | 353 | 2.0 | 4.0 | 0.00 | 0.00 | 0.00 | 80 | 1006.7 |
| 20260505124808 | 72 | 344 | 2.0 | 6.0 | 0.00 | 0.00 | 0.00 | 83 | 1006.1 |
| 20260505124307 | 72 | 182 | 2.0 | 4.0 | 0.00 | 0.00 | 0.00 | 83 | 1006.3 |
| 20260505123807 | 72 | 143 | 2.0 | 5.0 | 0.00 | 0.00 | 0.00 | 83 | 1005.9 |
| 20260505123307 | 72 | 2 | 2.0 | 6.0 | 0.00 | 0.00 | 0.00 | 83 | 1005.8 |
| 20260505122806 | 72 | 250 | 1.0 | 6.0 | 0.00 | 0.00 | 0.00 | 83 | 1005.7 |
| 20260505122307 | 72 | 122 | 2.0 | 4.0 | 0.00 | 0.00 | 0.00 | 83 | 1005.7 |
| 20260505121236 | 72 | 350 | 0.0 | 5.0 | 0.00 | 0.00 | 0.00 | 83 | 1005.7 |
| 20260505120736 | 72 | 121 | 2.0 | 7.0 | 0.00 | 0.00 | 0.00 | 83 | 1005.6 |
| 20260505120236 | 72 | 271 | 2.0 | 7.0 | 0.00 | 0.00 | 0.00 | 83 | 1005.7 |
| 20260505115736 | 72 | 45 | 2.0 | 4.0 | 0.00 | 0.00 | 0.00 | 83 | 1005.6 |
| 20260505115236 | 72 | 269 | 0.0 | 4.0 | 0.00 | 0.00 | 0.00 | 83 | 1005.8 |
| 20260505114705 | 72 | 215 | 2.0 | 5.0 | 0.00 | 0.00 | 0.00 | 83 | 1005.5 |
| 20260505114205 | 72 | 62 | 2.0 | 6.0 | 0.00 | 0.00 | 0.00 | 83 | 1005.6 |
| 20260505113204 | 72 | 159 | 2.0 | 5.0 | 0.00 | 0.00 | 0.00 | 83 | 1005.5 |
| 20260505112705 | 72 | 343 | 1.0 | 5.0 | 0.00 | 0.00 | 0.00 | 83 | 1005.4 |
| 20260505112205 | 71 | 92 | 2.0 | 4.0 | 0.00 | 0.00 | 0.00 | 84 | 1005.7 |
| 20260505111634 | 71 | 119 | 1.0 | 4.0 | 0.00 | 0.00 | 0.00 | 84 | 1005.6 |
| 20260505111135 | 71 | 106 | 1.0 | 4.0 | 0.00 | 0.00 | 0.00 | 84 | 1005.5 |
| 20260505110634 | 71 | 141 | 3.0 | 6.0 | 0.00 | 0.00 | 0.00 | 84 | 1005.5 |
| 20260505110134 | 71 | 103 | 2.0 | 6.0 | 0.00 | 0.00 | 0.00 | 84 | 1005.2 |
| 20260505102103 | 72 | 227 | 1.0 | 8.0 | 0.00 | 0.00 | 0.00 | 83 | 1005.5 |
| 20260505101533 | 72 | 32 | 2.0 | 4.0 | 0.00 | 0.00 | 0.00 | 83 | 1005.7 |
| 20260505101032 | 72 | 312 | 1.0 | 5.0 | 0.00 | 0.00 | 0.00 | 83 | 1005.6 |
| 20260505100533 | 72 | 99 | 0.0 | 5.0 | 0.00 | 0.00 | 0.00 | 83 | 1005.5 |
| 20260505100032 | 72 | 185 | 1.0 | 5.0 | 0.00 | 0.00 | 0.00 | 82 | 1005.6 |
| 20260505095532 | 72 | 309 | 1.0 | 4.0 | 0.00 | 0.00 | 0.00 | 82 | 1005.6 |
| 20260505095032 | 72 | 28 | 2.0 | 6.0 | 0.00 | 0.00 | 0.00 | 82 | 1005.6 |
| 20260505094532 | 72 | 154 | 0.0 | 6.0 | 0.00 | 0.00 | 0.00 | 82 | 1005.5 |
| 20260505094001 | 72 | 147 | 1.0 | 6.0 | 0.00 | 0.00 | 0.00 | 82 | 1005.8 |
| 20260505093502 | 72 | 41 | 4.0 | 11.0 | 0.00 | 0.00 | 0.00 | 82 | 1006.0 |
| 20260505092002 | 72 | 108 | 1.0 | 6.0 | 0.00 | 0.00 | 0.00 | 83 | 1005.8 |
| 20260505091501 | 72 | 353 | 1.0 | 6.0 | 0.00 | 0.00 | 0.00 | 83 | 1005.7 |
| 20260505090931 | 71 | 153 | 2.0 | 6.0 | 0.00 | 0.00 | 0.00 | 83 | 1006.0 |
| 20260505090430 | 71 | 129 | 3.0 | 6.0 | 0.00 | 0.00 | 0.00 | 83 | 1005.9 |
| 20260505085930 | 71 | 70 | 2.0 | 6.0 | 0.00 | 0.00 | 0.00 | 83 | 1006.1 |
| 20260505085430 | 71 | 38 | 2.0 | 6.0 | 0.00 | 0.00 | 0.00 | 83 | 1005.8 |
| 20260505084930 | 71 | 112 | 2.0 | 8.0 | 0.00 | 0.00 | 0.00 | 83 | 1005.9 |
| 20260505084430 | 71 | 125 | 3.0 | 8.0 | 0.00 | 0.00 | 0.00 | 83 | 1006.0 |
| 20260505083859 | 71 | 29 | 2.0 | 7.0 | 0.00 | 0.00 | 0.00 | 83 | 1006.0 |
| 20260505083400 | 71 | 133 | 0.0 | 6.0 | 0.00 | 0.00 | 0.00 | 83 | 1006.1 |
| 20260505082358 | 71 | 138 | 1.0 | 6.0 | 0.00 | 0.00 | 0.00 | 84 | 1005.8 |
| 20260505081859 | 71 | 101 | 0.0 | 5.0 | 0.00 | 0.00 | 0.00 | 83 | 1006.2 |
| 20260505081358 | 71 | 173 | 1.0 | 4.0 | 0.00 | 0.00 | 0.00 | 83 | 1006.0 |
| 20260505080828 | 71 | 92 | 2.0 | 5.0 | 0.00 | 0.00 | 0.00 | 83 | 1005.9 |
| 20260505075829 | 71 | 107 | 2.0 | 6.0 | 0.00 | 0.00 | 0.00 | 83 | 1006.1 |
| 20260505075328 | 71 | 78 | 3.0 | 6.0 | 0.00 | 0.00 | 0.00 | 82 | 1006.1 |
| 20260505074828 | 71 | 145 | 2.0 | 6.0 | 0.00 | 0.00 | 0.00 | 82 | 1006.3 |
| 20260505074328 | 71 | 115 | 1.0 | 4.0 | 0.00 | 0.00 | 0.00 | 82 | 1006.4 |
| 20260505073758 | 71 | 133 | 3.0 | 4.0 | 0.00 | 0.00 | 0.00 | 82 | 1006.5 |
| 20260505073258 | 71 | 349 | 2.0 | 4.0 | 0.00 | 0.00 | 0.00 | 81 | 1006.5 |
| 20260505072757 | 72 | 300 | 4.0 | 5.0 | 0.00 | 0.00 | 0.00 | 81 | 1006.6 |
| 20260505072257 | 72 | 107 | 2.0 | 5.0 | 0.00 | 0.00 | 0.00 | 81 | 1006.8 |
| 20260505071757 | 72 | 187 | 1.0 | 5.0 | 0.00 | 0.00 | 0.00 | 81 | 1006.8 |
| 20260505071256 | 72 | 108 | 2.0 | 6.0 | 0.00 | 0.00 | 0.00 | 80 | 1006.8 |
| 20260505070727 | 72 | 125 | 3.0 | 6.0 | 0.00 | 0.00 | 0.00 | 80 | 1007.0 |
| 20260505070226 | 72 | 89 | 0.0 | 5.0 | 0.00 | 0.00 | 0.00 | 80 | 1006.9 |
| 20260505065727 | 72 | 128 | 4.0 | 7.0 | 0.00 | 0.00 | 0.00 | 79 | 1006.8 |
| 20260505065226 | 72 | 72 | 3.0 | 7.0 | 0.00 | 0.00 | 0.00 | 79 | 1006.9 |
| 20260505064727 | 72 | 88 | 4.0 | 7.0 | 0.00 | 0.00 | 0.00 | 79 | 1007.1 |
| 20260505063656 | 73 | 128 | 4.0 | 4.0 | 0.00 | 0.00 | 0.00 | 78 | 1007.2 |
| 20260505063155 | 73 | 146 | 2.0 | 4.0 | 0.00 | 0.00 | 0.00 | 77 | 1007.2 |
| 20260505062655 | 73 | 108 | 3.0 | 5.0 | 0.00 | 0.00 | 0.00 | 77 | 1007.2 |
| 20260505062155 | 73 | 95 | 3.0 | 6.0 | 0.00 | 0.00 | 0.00 | 77 | 1007.3 |
| 20260505061656 | 73 | 12 | 2.0 | 6.0 | 0.00 | 0.00 | 0.00 | 77 | 1007.1 |
| 20260505061154 | 73 | 129 | 3.0 | 5.0 | 0.00 | 0.00 | 0.00 | 77 | 1007.2 |
| 20260505060625 | 73 | 117 | 3.0 | 9.0 | 0.00 | 0.00 | 0.00 | 76 | 1007.0 |
| 20260505055625 | 73 | 81 | 2.0 | 6.0 | 0.00 | 0.00 | 0.00 | 76 | 1007.1 |
| 20260505055124 | 73 | 191 | 0.0 | 7.0 | 0.00 | 0.00 | 0.00 | 75 | 1007.2 |
| 20260505054624 | 73 | 44 | 2.0 | 7.0 | 0.00 | 0.00 | 0.00 | 75 | 1007.3 |
| 20260505053624 | 73 | 167 | 2.0 | 8.0 | 0.00 | 0.00 | 0.00 | 75 | 1007.5 |
| 20260505053054 | 73 | 119 | 2.0 | 11.0 | 0.00 | 0.00 | 0.00 | 74 | 1007.3 |
| 20260505052554 | 73 | 105 | 3.0 | 11.0 | 0.00 | 0.00 | 0.00 | 74 | 1007.5 |
| 20260505052054 | 73 | 159 | 2.0 | 10.0 | 0.00 | 0.00 | 0.00 | 74 | 1007.4 |
| 20260505051053 | 73 | 34 | 4.0 | 4.0 | 0.00 | 0.00 | 0.00 | 74 | 1007.6 |
| 20260505050554 | 73 | 119 | 1.0 | 5.0 | 0.00 | 0.00 | 0.00 | 74 | 1007.5 |
| 20260505041452 | 74 | 143 | 1.0 | 5.0 | 0.00 | 0.00 | 0.00 | 71 | 1008.0 |
| 20260505040951 | 74 | 142 | 2.0 | 5.0 | 0.00 | 0.00 | 0.00 | 71 | 1007.8 |
| 20260505040451 | 74 | 100 | 2.0 | 5.0 | 0.00 | 0.00 | 0.00 | 71 | 1008.0 |
| 20260505035920 | 74 | 126 | 2.0 | 7.0 | 0.00 | 0.00 | 0.00 | 71 | 1007.9 |
| 20260505035420 | 74 | 345 | 1.0 | 7.0 | 0.00 | 0.00 | 0.00 | 71 | 1007.9 |
| 20260505034920 | 74 | 92 | 1.0 | 6.0 | 0.00 | 0.00 | 0.00 | 70 | 1007.8 |
| 20260505034421 | 74 | 87 | 2.0 | 6.0 | 0.00 | 0.00 | 0.00 | 70 | 1007.7 |
| 20260505033920 | 74 | 39 | 1.0 | 8.0 | 0.00 | 0.00 | 0.00 | 70 | 1007.6 |
| 20260505033420 | 75 | 19 | 2.0 | 8.0 | 0.00 | 0.00 | 0.00 | 70 | 1008.0 |
| 20260505032850 | 75 | 119 | 3.0 | 7.0 | 0.00 | 0.00 | 0.00 | 70 | 1008.0 |
| 20260505032350 | 75 | 146 | 4.0 | 7.0 | 0.00 | 0.00 | 0.00 | 70 | 1008.0 |
| 20260505031849 | 75 | 88 | 2.0 | 9.0 | 0.00 | 0.00 | 0.00 | 69 | 1008.0 |
| 20260505031350 | 75 | 108 | 3.0 | 9.0 | 0.00 | 0.00 | 0.00 | 69 | 1007.8 |
| 20260505030849 | 75 | 114 | 3.0 | 5.0 | 0.00 | 0.00 | 0.00 | 69 | 1008.0 |
| 20260505030349 | 75 | 126 | 2.0 | 5.0 | 0.00 | 0.00 | 0.00 | 69 | 1008.0 |
| 20260505025820 | 75 | 119 | 4.0 | 7.0 | 0.00 | 0.00 | 0.00 | 69 | 1007.8 |
| 20260505023818 | 75 | 103 | 0.0 | 6.0 | 0.00 | 0.00 | 0.00 | 68 | 1008.1 |
| 20260505022747 | 75 | 274 | 0.0 | 6.0 | 0.00 | 0.00 | 0.00 | 68 | 1007.6 |
| 20260505022248 | 75 | 116 | 0.0 | 8.0 | 0.00 | 0.00 | 0.00 | 68 | 1007.8 |
| 20260505021749 | 75 | 56 | 1.0 | 8.0 | 0.00 | 0.00 | 0.00 | 67 | 1007.7 |
| 20260505020748 | 75 | 346 | 2.0 | 6.0 | 0.00 | 0.00 | 0.00 | 67 | 1007.7 |
| 20260505020247 | 76 | 222 | 1.0 | 8.0 | 0.00 | 0.00 | 0.00 | 67 | 1007.6 |
| 20260505015747 | 76 | 216 | 2.0 | 8.0 | 0.00 | 0.00 | 0.00 | 67 | 1007.6 |